KC5EZZ-2 Weather Reports


Display with metric or nautical units.
time (UTC)temp
F
wind
direction
speed
MPH
gust
MPH
rain 1hr
in
rain 24hr
in
rain mn
in
humidity
%
barometer
mb
20260508181157 73 243 5.0 4.0 0.00 0.00 0.00
20260508180654 74 188 2.0 4.0 0.00 0.00 0.00
20260508180155 74 191 1.0 0.0 0.00 0.00 0.00
20260508175655 74 191 0.0 0.0 0.00 0.00 0.00
20260508175153 73 187 2.0 1.0 0.00 0.00 0.00
20260508174653 72 4 0.0 0.0 0.00 0.00 0.00
20260508174154 72 97 0.0 4.0 0.00 0.00 0.00
20260508173651 73 339 0.0 1.0 0.00 0.00 0.00
20260508173152 73 215 0.0 0.0 0.00 0.00 0.00
20260508172652 72 215 0.0 0.0 0.00 0.00 0.00
20260508172150 71 181 1.0 1.0 0.00 0.00 0.00
20260508171650 71 110 2.0 3.0 0.00 0.00 0.00
20260508171150 71 70 0.0 0.0 0.00 0.00 0.00
20260508170648 70 73 2.0 4.0 0.00 0.00 0.00
20260508170148 70 113 0.0 3.0 0.00 0.00 0.00
20260508165649 70 97 0.0 0.0 0.00 0.00 0.00
20260508165146 72 97 0.0 0.0 0.00 0.00 0.00
20260508164647 73 150 5.0 7.0 0.00 0.00 0.00
20260508164147 72 115 3.0 0.0 0.00 0.00 0.00
20260508163645 74 138 6.0 7.0 0.00 0.00 0.00
20260508163145 72 160 5.0 2.0 0.00 0.00 0.00
20260508162645 69 35 0.0 0.0 0.00 0.00 0.00
20260508162143 69 55 4.0 3.0 0.00 0.00 0.00
20260508161643 69 131 6.0 2.0 0.00 0.00 0.00
20260508161144 70 131 3.0 3.0 0.00 0.00 0.00
20260508160641 72 285 0.0 0.0 0.00 0.00 0.00
20260508160142 71 285 2.0 0.0 0.00 0.00 0.00
20260508155642 70 139 3.0 2.0 0.00 0.00 0.00
20260508155139 69 203 3.0 1.0 0.00 0.00 0.00
20260508154640 67 79 2.0 1.0 0.00 0.00 0.00
20260508154140 68 359 0.0 0.0 0.00 0.00 0.00
20260508153638 66 59 1.0 0.0 0.00 0.00 0.00
20260508153138 65 60 5.0 1.0 0.00 0.00 0.00
20260508152639 64 69 2.0 0.0 0.00 0.00 0.00
20260508152136 65 70 3.0 4.0 0.00 0.00 0.00
20260508151636 65 169 4.0 1.0 0.00 0.00 0.00
20260508151137 64 60 4.0 1.0 0.00 0.00 0.00
20260508150634 65 124 0.0 0.0 0.00 0.00 0.00
20260508150135 64 101 0.0 5.0 0.00 0.00 0.00
20260508145635 64 121 3.0 4.0 0.00 0.00 0.00
20260508145133 62 38 2.0 2.0 0.00 0.00 0.00
20260508144633 62 42 3.0 3.0 0.00 0.00 0.00
20260508144133 62 125 1.0 0.0 0.00 0.00 0.00
20260508143131 61 48 2.0 5.0 0.00 0.00 0.00
20260508142632 61 97 7.0 5.0 0.00 0.00 0.00
20260508142129 61 148 3.0 4.0 0.00 0.00 0.00
20260508141630 60 146 5.0 4.0 0.00 0.00 0.00
20260508141130 60 111 5.0 6.0 0.00 0.00 0.00
20260508140628 60 91 4.0 4.0 0.00 0.00 0.00
20260508140128 60 83 4.0 2.0 0.00 0.00 0.00
20260508135628 60 89 4.0 4.0 0.00 0.00 0.00
20260508135126 59 59 3.0 2.0 0.00 0.00 0.00
20260508134626 59 69 3.0 4.0 0.00 0.00 0.00
20260508134127 59 59 1.0 0.0 0.00 0.00 0.00
20260508133624 59 56 3.0 1.0 0.00 0.00 0.00
20260508133124 59 77 5.0 2.0 0.00 0.00 0.00
20260508132625 59 359 6.0 4.0 0.00 0.00 0.00
20260508132122 59 0 7.0 7.0 0.00 0.00 0.00
20260508131622 59 6 5.0 6.0 0.00 0.00 0.00
20260508131123 59 10 6.0 7.0 0.00 0.00 0.00
20260508130620 59 18 7.0 7.0 0.00 0.00 0.00
20260508130121 59 28 6.0 5.0 0.00 0.00 0.00
20260508125621 59 39 4.0 6.0 0.00 0.00 0.00
20260508125119 59 68 5.0 5.0 0.00 0.00 0.00
20260508124619 59 46 4.0 4.0 0.00 0.00 0.00
20260508124120 59 41 5.0 6.0 0.00 0.00 0.00
20260508123617 59 41 5.0 6.0 0.00 0.00 0.00
20260508123118 59 27 5.0 4.0 0.00 0.00 0.00
20260508122618 59 11 4.0 5.0 0.00 0.00 0.00
20260508122115 59 45 5.0 6.0 0.00 0.00 0.00
20260508121615 59 52 4.0 7.0 0.00 0.00 0.00
20260508121115 59 68 4.0 3.0 0.00 0.00 0.00
20260508120613 59 62 5.0 5.0 0.00 0.00 0.00
20260508120113 59 44 4.0 5.0 0.00 0.00 0.00
20260508115614 59 45 6.0 4.0 0.00 0.00 0.00
20260508115111 59 60 4.0 4.0 0.00 0.00 0.00
20260508114612 59 91 4.0 3.0 0.00 0.00 0.00
20260508114112 59 94 2.0 5.0 0.00 0.00 0.00
20260508113610 59 86 3.0 4.0 0.00 0.00 0.00
20260508113110 59 86 4.0 4.0 0.00 0.00 0.00
20260508112611 59 77 2.0 4.0 0.00 0.00 0.00
20260508112108 59 58 2.0 2.0 0.00 0.00 0.00
20260508111609 59 66 4.0 3.0 0.00 0.00 0.00
20260508111109 59 86 2.0 2.0 0.00 0.00 0.00
20260508110607 59 23 0.0 0.0 0.00 0.00 0.00
20260508110107 59 23 0.0 0.0 0.00 0.00 0.00
20260508105608 59 23 2.0 1.0 0.00 0.00 0.00
20260508105105 59 357 4.0 4.0 0.00 0.00 0.00
20260508104606 59 1 0.0 4.0 0.00 0.00 0.00
20260508104106 59 129 0.0 0.0 0.00 0.00 0.00
20260508103604 59 129 0.0 0.0 0.00 0.00 0.00
20260508103104 59 129 0.0 0.0 0.00 0.00 0.00
20260508102605 59 129 0.0 0.0 0.00 0.00 0.00
20260508102103 59 129 0.0 0.0 0.00 0.00 0.00
20260508101603 59 129 0.0 0.0 0.00 0.00 0.00
20260508101104 59 129 0.0 0.0 0.00 0.00 0.00
20260508100601 59 129 0.0 0.0 0.00 0.00 0.00
20260508095602 59 129 0.0 0.0 0.00 0.00 0.00
20260508094600 59 129 0.0 0.0 0.00 0.00 0.00
20260508094101 59 129 0.0 0.0 0.00 0.00 0.00
20260508093559 59 138 2.0 1.0 0.00 0.00 0.00
20260508093059 59 121 1.0 0.0 0.00 0.00 0.00
20260508092600 59 139 3.0 4.0 0.00 0.00 0.00
20260508092057 59 139 3.0 3.0 0.00 0.00 0.00
20260508091558 59 162 3.0 3.0 0.00 0.00 0.00
20260508091057 58 127 4.0 4.0 0.00 0.00 0.00
20260508090555 58 145 4.0 4.0 0.00 0.00 0.00
20260508090055 59 146 4.0 4.0 0.00 0.00 0.00
20260508085556 58 158 4.0 3.0 0.00 0.00 0.00
20260508085053 58 145 7.0 6.0 0.00 0.00 0.00
20260508084554 58 142 5.0 6.0 0.00 0.00 0.00
20260508084055 58 142 5.0 5.0 0.00 0.00 0.00
20260508083552 58 149 7.0 7.0 0.00 0.00 0.00
20260508083053 58 172 6.0 6.0 0.00 0.00 0.00
20260508082553 58 138 4.0 2.0 0.00 0.00 0.00
20260508081552 58 143 8.0 6.0 0.00 0.00 0.00
20260508080550 58 128 7.0 7.0 0.00 0.00 0.00
20260508080050 58 127 9.0 8.0 0.00 0.00 0.00
20260508075551 58 127 7.0 8.0 0.00 0.00 0.00
20260508075049 58 139 5.0 6.0 0.00 0.00 0.00
20260508074549 58 131 5.0 5.0 0.00 0.00 0.00
20260508074050 58 155 5.0 5.0 0.00 0.00 0.00
20260508073547 58 155 6.0 4.0 0.00 0.00 0.00
20260508073048 58 103 7.0 5.0 0.00 0.00 0.00
20260508072548 58 124 4.0 6.0 0.00 0.00 0.00
20260508072046 58 131 7.0 5.0 0.00 0.00 0.00
20260508071546 58 150 6.0 5.0 0.00 0.00 0.00
20260508071047 58 90 6.0 6.0 0.00 0.00 0.00
20260508070544 58 83 5.0 6.0 0.00 0.00 0.00
20260508070045 58 125 4.0 5.0 0.00 0.00 0.00
20260508065545 59 97 5.0 3.0 0.00 0.00 0.00
20260508065042 58 82 5.0 5.0 0.00 0.00 0.00
20260508064542 59 68 6.0 7.0 0.00 0.00 0.00
20260508064043 59 91 5.0 6.0 0.00 0.00 0.00
20260508063540 59 72 4.0 4.0 0.00 0.00 0.00
20260508063041 59 84 6.0 4.0 0.00 0.00 0.00
20260508062542 59 38 3.0 4.0 0.00 0.00 0.00
20260508062039 59 352 4.0 3.0 0.00 0.00 0.00
20260508061540 58 335 4.0 4.0 0.00 0.00 0.00
20260508061040 59 309 3.0 3.0 0.00 0.00 0.00
20260508060538 59 311 3.0 2.0 0.00 0.00 0.00
20260508060038 58 326 4.0 3.0 0.00 0.00 0.00
20260508055539 58 322 5.0 5.0 0.00 0.00 0.00
20260508055039 59 63 0.0 0.0 0.00 0.00 0.00
20260508054538 59 63 0.0 0.0 0.00 0.00 0.00
20260508054038 59 63 0.0 0.0 0.00 0.00 0.00
20260508053537 58 63 0.0 0.0 0.00 0.00 0.00
20260508053035 53 63 0.0 0.0 0.00 0.00 0.00
20260508052536 58 63 0.0 0.0 0.00 0.00 0.00
20260508052033 58 63 0.0 0.0 0.00 0.00 0.00
20260508051534 58 66 3.0 2.0 0.00 0.00 0.00
20260508051034 59 76 3.0 3.0 0.00 0.00 0.00
20260508050532 58 80 4.0 5.0 0.00 0.00 0.00
20260508050032 58 94 4.0 4.0 0.00 0.00 0.00
20260508045533 58 89 4.0 2.0 0.00 0.00 0.00
20260508045030 58 94 3.0 5.0 0.00 0.00 0.00
20260508044531 58 98 4.0 5.0 0.00 0.00 0.00
20260508044031 59 105 4.0 4.0 0.00 0.00 0.00
20260508043611 59 114 5.0 4.0 0.00 0.00 0.00
20260508043529 59 114 5.0 4.0 0.00 0.00 0.00
20260508043029 57 107 0.0 0.0 0.00 0.00 0.00
20260508042530 54 107 0.0 0.0 0.00 0.00 0.00
20260508042059 54 107 0.0 0.0 0.00 0.00 0.00
20260508042027 54 107 0.0 0.0 0.00 0.00 0.00
20260508041651 54 107 0.0 0.0 0.00 0.00 0.00
20260508041528 54 107 0.0 0.0 0.00 0.00 0.00
20260508041028 56 107 0.0 0.0 0.00 0.00 0.00
20260508040526 54 107 0.0 0.0 0.00 0.00 0.00
20260508040026 58 107 0.0 0.0 0.00 0.00 0.00
20260508035527 58 107 0.0 0.0 0.00 0.00 0.00
20260508035024 58 107 0.0 0.0 0.00 0.00 0.00
20260508034525 58 93 0.0 3.0 0.00 0.00 0.00
20260508034025 58 49 0.0 0.0 0.00 0.00 0.00
20260508033523 58 49 0.0 0.0 0.00 0.00 0.00
20260508033023 58 49 0.0 0.0 0.00 0.00 0.00
20260508032524 58 121 3.0 3.0 0.00 0.00 0.00
20260508032021 57 87 5.0 4.0 0.00 0.00 0.00
20260508031522 58 104 4.0 4.0 0.00 0.00 0.00
20260508031022 58 91 6.0 4.0 0.00 0.00 0.00
20260508030520 57 83 6.0 7.0 0.00 0.00 0.00
20260508030021 57 90 6.0 5.0 0.00 0.00 0.00
20260508025521 58 93 5.0 5.0 0.00 0.00 0.00
20260508025019 57 75 4.0 4.0 0.00 0.00 0.00
20260508024519 58 103 5.0 5.0 0.00 0.00 0.00
20260508024019 58 107 4.0 4.0 0.00 0.00 0.00
20260508023516 57 120 3.0 3.0 0.00 0.00 0.00
20260508022517 53 79 5.0 3.0 0.00 0.00 0.00
20260508022014 52 76 4.0 5.0 0.00 0.00 0.00
20260508021515 53 104 5.0 5.0 0.00 0.00 0.00
20260508021015 52 101 4.0 6.0 0.00 0.00 0.00
20260508020513 53 125 5.0 4.0 0.00 0.00 0.00
20260508020013 52 103 4.0 4.0 0.00 0.00 0.00
20260508015514 57 94 6.0 5.0 0.00 0.00 0.00
20260508015010 52 136 5.0 5.0 0.00 0.00 0.00
20260508014511 54 136 5.0 3.0 0.00 0.00 0.00
20260508014012 54 93 4.0 5.0 0.00 0.00 0.00
20260508013509 53 94 5.0 6.0 0.00 0.00 0.00
20260508013010 54 114 6.0 6.0 0.00 0.00 0.00
20260508012510 53 104 7.0 7.0 0.00 0.00 0.00
20260508012008 54 117 5.0 4.0 0.00 0.00 0.00
20260508011508 54 101 5.0 7.0 0.00 0.00 0.00
20260508011009 50 113 6.0 7.0 0.00 0.00 0.00
20260508010506 51 141 8.0 9.0 0.00 0.00 0.00
20260508010007 53 114 7.0 6.0 0.00 0.00 0.00
20260508005507 56 135 4.0 6.0 0.00 0.00 0.00
20260508005005 58 114 6.0 4.0 0.00 0.00 0.00
20260508004505 52 93 5.0 4.0 0.00 0.00 0.00
20260508004006 57 124 6.0 3.0 0.00 0.00 0.00
20260508003503 56 139 6.0 8.0 0.00 0.00 0.00
20260508003005 58 107 6.0 7.0 0.00 0.00 0.00
20260508002505 58 135 6.0 7.0 0.00 0.00 0.00
20260508002002 58 115 7.0 7.0 0.00 0.00 0.00
20260508001503 53 89 5.0 6.0 0.00 0.00 0.00
20260508001003 54 122 5.0 5.0 0.00 0.00 0.00
20260508000501 57 113 6.0 7.0 0.00 0.00 0.00
20260508000001 53 100 7.0 6.0 0.00 0.00 0.00
20260507235502 53 105 5.0 3.0 0.00 0.00 0.00
20260507235000 54 122 7.0 7.0 0.00 0.00 0.00
20260507234500 58 138 6.0 5.0 0.00 0.00 0.00
20260507234001 58 135 8.0 6.0 0.00 0.00 0.00
20260507233458 54 101 7.0 8.0 0.00 0.00 0.00
20260507232959 54 142 5.0 4.0 0.00 0.00 0.00
20260507232459 54 143 5.0 6.0 0.00 0.00 0.00
20260507231957 56 105 5.0 4.0 0.00 0.00 0.00
20260507231458 55 132 6.0 6.0 0.00 0.00 0.00
20260507230958 56 124 6.0 7.0 0.00 0.00 0.00
20260507230456 55 103 6.0 4.0 0.00 0.00 0.00
20260507225956 59 114 8.0 7.0 0.00 0.00 0.00
20260507225457 54 108 7.0 7.0 0.00 0.00 0.00
20260507224455 54 107 7.0 5.0 0.00 0.00 0.00
20260507223956 58 77 8.0 9.0 0.00 0.00 0.00
20260507223453 59 70 9.0 7.0 0.00 0.00 0.00
20260507222954 59 87 8.0 9.0 0.00 0.00 0.00
20260507222455 60 98 7.0 11.0 0.00 0.00 0.00
20260507221952 60 132 9.0 9.0 0.00 0.00 0.00
20260507221453 60 104 9.0 7.0 0.00 0.00 0.00
20260507220953 60 101 9.0 8.0 0.00 0.00 0.00
20260507220451 60 113 9.0 9.0 0.00 0.00 0.00
20260507215951 60 115 8.0 9.0 0.00 0.00 0.00
20260507215452 61 93 9.0 9.0 0.00 0.00 0.00
20260507214949 61 100 10.0 9.0 0.00 0.00 0.00
20260507214450 61 91 10.0 12.0 0.00 0.00 0.00
20260507213950 60 90 8.0 9.0 0.00 0.00 0.00
20260507213448 61 117 12.0 11.0 0.00 0.00 0.00
20260507212948 61 87 11.0 9.0 0.00 0.00 0.00
20260507212449 61 96 10.0 13.0 0.00 0.00 0.00
20260507211946 60 86 13.0 14.0 0.00 0.00 0.00
20260507211447 61 107 13.0 14.0 0.00 0.00 0.00
20260507210948 60 105 11.0 10.0 0.00 0.00 0.00
20260507210445 61 83 9.0 10.0 0.00 0.00 0.00
20260507205946 61 84 9.0 8.0 0.00 0.00 0.00
20260507205446 61 75 8.0 7.0 0.00 0.00 0.00
20260507204944 61 87 7.0 8.0 0.00 0.00 0.00
20260507204444 61 76 8.0 11.0 0.00 0.00 0.00
20260507203945 60 93 9.0 10.0 0.00 0.00 0.00
20260507203442 61 117 9.0 9.0 0.00 0.00 0.00
20260507202943 62 87 9.0 9.0 0.00 0.00 0.00
20260507202443 62 100 11.0 10.0 0.00 0.00 0.00
20260507201941 63 121 11.0 16.0 0.00 0.00 0.00
20260507201442 64 75 10.0 10.0 0.00 0.00 0.00
20260507200942 64 77 11.0 11.0 0.00 0.00 0.00
20260507200440 64 90 7.0 6.0 0.00 0.00 0.00
20260507195940 64 66 10.0 12.0 0.00 0.00 0.00
20260507195441 64 60 9.0 7.0 0.00 0.00 0.00
20260507194938 63 52 7.0 9.0 0.00 0.00 0.00
20260507194439 64 96 9.0 9.0 0.00 0.00 0.00
20260507193939 64 63 10.0 8.0 0.00 0.00 0.00
20260507193437 63 75 11.0 8.0 0.00 0.00 0.00
20260507192937 64 104 8.0 7.0 0.00 0.00 0.00
20260507192438 64 76 7.0 8.0 0.00 0.00 0.00
20260507191935 64 70 10.0 8.0 0.00 0.00 0.00
20260507191436 65 41 10.0 8.0 0.00 0.00 0.00
20260507190936 65 87 9.0 9.0 0.00 0.00 0.00
20260507190434 64 66 7.0 8.0 0.00 0.00 0.00
20260507185934 64 135 11.0 13.0 0.00 0.00 0.00
20260507185435 64 128 9.0 8.0 0.00 0.00 0.00
20260507184933 65 73 10.0 11.0 0.00 0.00 0.00
20260507184433 64 59 10.0 7.0 0.00 0.00 0.00
20260507183934 64 42 10.0 10.0 0.00 0.00 0.00
20260507183431 64 38 9.0 11.0 0.00 0.00 0.00
20260507182932 64 39 9.0 12.0 0.00 0.00 0.00
20260507182432 64 56 12.0 9.0 0.00 0.00 0.00
20260507181929 64 48 9.0 11.0 0.00 0.00 0.00